COSMOS 2251 DEB, 34908

Orbit data source: Space-Track

COSMOS 2251 DEB, 34908 is space debris in LEO originally from a launch on Wed, 16 Jun 1993 UTC launched from the Plesetsk Missile And Space Complex (PKMTR). The debris from Iridium 33, an American commercial communications satellite, has been tracked extensively since its accidental collision with the defunct Russian satellite Cosmos 2251 in 2009. This event, occurring at high speed in low Earth orbit (LEO), generated thousands of pieces of space debris, significantly increasing the risk of further collisions. The Iridium 33 debris cloud has impacted space traffic management and orbital debris mitigation strategies, making it a subject of ongoing study in space situational awareness.

Loading next visibility...
Identifier
34908, 1993-036ADD
Orbit
LEO
Country
Flag of CISCIS
Related business
Manufacturer
Unknown
Mission
Spacecraft
Bus & Motor
Unknown
Mass
Unknown
Launch date (UTC)
1993-06-16 (33 years ago)
Launch vehicle
Unknown
Launch site
Plesetsk Missile And Space Complex (PKMTR)
Object type
Payload
Rocket body
Debris
Shape & HBR
Unknown shape, 0.1 m
Radar Cross Section
Small (<0.1 m²)

Expand to show TLE details & history
Last TLE update: 11 hours ago

TLE from 11 hours ago
0 COSMOS 2251 DEB
1 34908U 93036ADD 26034.15822833  .00001469  00000-0  49290-3 0  9999
2 34908  74.0586 287.3166 0041731 291.9497 221.8042 14.37640705880323
Epoch: 2026-02-03T03:47Z
TLE epoch observation values (Epoch: 2026-02-03T03:47:50.927Z)
Latitude
25.50475°
Longitude
-90.77908°
Altitude
791.372 km
Speed
7.449 km/s
True Right ascension
06h 38m 06s
True Declination
25° 22' 19"
Sunlit
Object was in full shadow at epoch
Visualization orbit readout
Latitude
Unknown
Longitude
Unknown
Altitude
Unknown
Speed
Unknown
Apparent Right ascension
Unknown
Apparent Declination
Unknown
Sunlit
N/A
Visualization observer readout
Local Sidereal Time
16:33:19
Azimuth
Unknown
Elevation
Unknown
Doppler factor
Unknown
Orbital elements
Apogee altitude
793.729 km
Perigee altitude
734.12 km
Semi-major axis
7,142.061 km
Eccentricity
0.00417
Inclination
74.0586°
RAAN
287.3166°
Arg. of periapsis
291.9497°
True anomaly
221.48667°
Mean anomaly
221.8042°
Eccentric anomaly
221.64531°
Mean motion
3.5959 °/min
Orbital period
100.11 mins
BSTAR
0.0004929
Loading maneuver chart data...
Computing Atmospheric mass density...
Loading historical data...
Loading historical data...
Loading historical data...
Loading historical data...
Loading historical data...
Loading historical data...
Loading historical data...

Documentation

Showing up to 5 results
|